| time (UTC) | temp C | wind direction | speed KPH | gust KPH | rain 1hr cm | rain 24hr cm | rain mn cm | humidity % | barometer mb |
| 20260905022433 | 17 | 268 | 11.3 | 24.1 | 0.00 | 0.00 | 0.00 | 51 | 1014.0 |
| 20260905021936 | 17 | 274 | 11.3 | 24.1 | 0.00 | 0.00 | 0.00 | 51 | 1014.0 |
| 20260905021440 | 17 | 270 | 12.9 | 22.5 | 0.00 | 0.00 | 0.00 | 51 | 1014.0 |
| 20260905020941 | 18 | 279 | 14.5 | 22.5 | 0.00 | 0.00 | 0.00 | 51 | 1013.9 |
| 20260905015450 | 18 | 288 | 19.3 | 25.7 | 0.00 | 0.00 | 0.00 | 48 | 1013.8 |
| 20260905014457 | 20 | 277 | 11.3 | 22.5 | 0.00 | 0.00 | 0.00 | 47 | 1014.0 |
| 20260905013959 | 20 | 277 | 16.1 | 22.5 | 0.00 | 0.00 | 0.00 | 47 | 1013.9 |
| 20260905012509 | 20 | 281 | 14.5 | 25.7 | 0.00 | 0.00 | 0.00 | 46 | 1013.9 |
| 20260905012011 | 21 | 255 | 14.5 | 29.0 | 0.00 | 0.00 | 0.00 | 46 | 1013.9 |
| 20260905011017 | 21 | 278 | 12.9 | 30.6 | 0.00 | 0.00 | 0.00 | 46 | 1013.9 |
| 20260905010521 | 21 | 264 | 17.7 | 30.6 | 0.00 | 0.00 | 0.00 | 45 | 1013.8 |
| 20260905010023 | 21 | 270 | 14.5 | 30.6 | 0.00 | 0.00 | 0.00 | 45 | 1013.7 |
| 20260905005030 | 21 | 251 | 24.1 | 37.0 | 0.00 | 0.00 | 0.00 | 44 | 1013.9 |
| 20260905004533 | 21 | 255 | 19.3 | 37.0 | 0.00 | 0.00 | 0.00 | 45 | 1013.9 |
| 20260905002545 | 22 | 263 | 19.3 | 38.6 | 0.00 | 0.00 | 0.00 | 43 | 1013.6 |
| 20260905001054 | 22 | 258 | 22.5 | 38.6 | 0.00 | 0.00 | 0.00 | 44 | 1013.8 |
| 20260905000557 | 22 | 269 | 17.7 | 40.2 | 0.00 | 0.00 | 0.00 | 44 | 1013.8 |
| 20260904235603 | 22 | 249 | 27.4 | 37.0 | 0.00 | 0.00 | 0.00 | 43 | 1013.9 |
| 20260904231627 | 22 | 259 | 17.7 | 38.6 | 0.00 | 0.00 | 0.00 | 43 | 1014.0 |
| 20260904230633 | 24 | 267 | 22.5 | 35.4 | 0.00 | 0.00 | 0.00 | 39 | 1014.3 |
| 20260904225639 | 25 | 257 | 16.1 | 33.8 | 0.00 | 0.00 | 0.00 | 38 | 1014.2 |
| 20260904225142 | 25 | 260 | 16.1 | 33.8 | 0.00 | 0.00 | 0.00 | ||
| 20260904224645 | 25 | 264 | 14.5 | 37.0 | 0.00 | 0.00 | 0.00 | 36 | 1014.2 |
| 20260904223651 | 25 | 254 | 22.5 | 33.8 | 0.00 | 0.00 | 0.00 | 35 | 1014.4 |
| 20260904223154 | 25 | 261 | 16.1 | 33.8 | 0.00 | 0.00 | 0.00 | 35 | 1014.3 |
| 20260904222200 | 25 | 270 | 22.5 | 35.4 | 0.00 | 0.00 | 0.00 | 33 | 1014.5 |
| 20260904220709 | 25 | 261 | 20.9 | 30.6 | 0.00 | 0.00 | 0.00 | 32 | 1014.8 |
| 20260904220212 | 25 | 214 | 19.3 | 30.6 | 0.00 | 0.00 | 0.00 | 32 | 1014.9 |
| 20260904215218 | 25 | 262 | 19.3 | 32.2 | 0.00 | 0.00 | 0.00 | 31 | 1015.0 |
| 20260904214223 | 25 | 256 | 19.3 | 35.4 | 0.00 | 0.00 | 0.00 | 30 | 1015.1 |
| 20260904213726 | 25 | 226 | 17.7 | 35.4 | 0.00 | 0.00 | 0.00 | 31 | 1015.2 |
| 20260904213230 | 25 | 243 | 14.5 | 25.7 | 0.00 | 0.00 | 0.00 | 28 | 1015.4 |
| 20260904212733 | 25 | 263 | 16.1 | 29.0 | 0.00 | 0.00 | 0.00 | 30 | 1015.3 |
| 20260904211739 | 25 | 253 | 19.3 | 35.4 | 0.00 | 0.00 | 0.00 | 29 | 1015.3 |
| 20260904211242 | 25 | 266 | 20.9 | 32.2 | 0.00 | 0.00 | 0.00 | 29 | 1015.2 |
| 20260904210745 | 25 | 252 | 12.9 | 40.2 | 0.00 | 0.00 | 0.00 | 30 | 1015.2 |
| 20260904210248 | 25 | 248 | 16.1 | 40.2 | 0.00 | 0.00 | 0.00 | 30 | 1015.2 |
| 20260904205751 | 25 | 224 | 20.9 | 35.4 | 0.00 | 0.00 | 0.00 | 29 | 1015.2 |
| 20260904203803 | 25 | 231 | 14.5 | 33.8 | 0.00 | 0.00 | 0.00 | 27 | 1015.3 |
| 20260904203307 | 25 | 232 | 22.5 | 32.2 | 0.00 | 0.00 | 0.00 | 27 | 1014.4 |
| 20260904202809 | 25 | 260 | 20.9 | 30.6 | 0.00 | 0.00 | 0.00 | 26 | 1014.4 |
| 20260904202312 | 25 | 243 | 14.5 | 27.4 | 0.00 | 0.00 | 0.00 | 26 | 1014.4 |
| 20260904200324 | 24 | 273 | 20.9 | 32.2 | 0.00 | 0.00 | 0.00 | 25 | 1014.6 |
| 20260904195827 | 24 | 276 | 17.7 | 29.0 | 0.00 | 0.00 | 0.00 | 25 | 1014.6 |
| 20260904195330 | 24 | 238 | 14.5 | 32.2 | 0.00 | 0.00 | 0.00 | 25 | 1014.7 |
| 20260904193839 | 25 | 274 | 19.3 | 30.6 | 0.00 | 0.00 | 0.00 | 25 | 1014.7 |
| 20260904193342 | 25 | 247 | 17.7 | 32.2 | 0.00 | 0.00 | 0.00 | 26 | 1014.7 |
| 20260904192845 | 25 | 233 | 19.3 | 33.8 | 0.00 | 0.00 | 0.00 | 25 | 1014.7 |
| 20260904191851 | 24 | 278 | 19.3 | 37.0 | 0.00 | 0.00 | 0.00 | 27 | 1014.7 |
| 20260904185903 | 23 | 277 | 17.7 | 30.6 | 0.00 | 0.00 | 0.00 | 28 | 1015.0 |
| 20260904182424 | 23 | 257 | 16.1 | 25.7 | 0.00 | 0.00 | 0.00 | 28 | 1015.0 |
| 20260904173951 | 22 | 237 | 9.7 | 30.6 | 0.00 | 0.00 | 0.00 | 29 | 1015.1 |
| 20260904173454 | 21 | 270 | 19.3 | 30.6 | 0.00 | 0.00 | 0.00 | 29 | 1015.0 |
| 20260904172500 | 21 | 262 | 12.9 | 30.6 | 0.00 | 0.00 | 0.00 | 27 | 1015.1 |
| 20260904165518 | 21 | 245 | 14.5 | 29.0 | 0.00 | 0.00 | 0.00 | 24 | 1014.9 |
| 20260904165021 | 20 | 266 | 17.7 | 29.0 | 0.00 | 0.00 | 0.00 | 21 | 1014.8 |
| 20260904164027 | 20 | 271 | 19.3 | 29.0 | 0.00 | 0.00 | 0.00 | 21 | 1014.7 |
| 20260904163033 | 20 | 274 | 14.5 | 25.7 | 0.00 | 0.00 | 0.00 | 18 | 1014.6 |
| 20260904161542 | 19 | 270 | 19.3 | 27.4 | 0.00 | 0.00 | 0.00 | 14 | 1014.4 |
| 20260904161045 | 19 | 275 | 19.3 | 27.4 | 0.00 | 0.00 | 0.00 | 14 | 1014.2 |
| 20260904160548 | 19 | 278 | 20.9 | 27.4 | 0.00 | 0.00 | 0.00 | 13 | 1014.3 |
| 20260904155057 | 18 | 260 | 14.5 | 27.4 | 0.00 | 0.00 | 0.00 | 15 | 1014.1 |
| 20260904153109 | 17 | 251 | 14.5 | 24.1 | 0.00 | 0.00 | 0.00 | 15 | 1013.9 |
| 20260904152115 | 17 | 262 | 17.7 | 24.1 | 0.00 | 0.00 | 0.00 | 15 | 1013.7 |
| 20260904151618 | 17 | 247 | 14.5 | 22.5 | 0.00 | 0.00 | 0.00 | 16 | 1013.8 |
| 20260904150624 | 17 | 251 | 14.5 | 22.5 | 0.00 | 0.00 | 0.00 | 18 | 1013.7 |
| 20260904145630 | 16 | 247 | 14.5 | 24.1 | 0.00 | 0.00 | 0.00 | 18 | 1013.6 |
| 20260904145133 | 16 | 253 | 14.5 | 24.1 | 0.00 | 0.00 | 0.00 | 19 | 1013.7 |
| 20260904144139 | 16 | 255 | 11.3 | 24.1 | 0.00 | 0.00 | 0.00 | 20 | 1013.7 |
| 20260904143145 | 16 | 249 | 14.5 | 27.4 | 0.00 | 0.00 | 0.00 | 19 | 1013.6 |
| 20260904141654 | 15 | 248 | 20.9 | 30.6 | 0.00 | 0.00 | 0.00 | 20 | 1013.2 |
| 20260904135209 | 14 | 258 | 17.7 | 29.0 | 0.00 | 0.00 | 0.00 | 28 | 1013.0 |
| 20260904134215 | 14 | 252 | 20.9 | 32.2 | 0.00 | 0.00 | 0.00 | 32 | 1012.7 |
| 20260904133718 | 14 | 250 | 20.9 | 32.2 | 0.00 | 0.00 | 0.00 | 32 | 1012.6 |
| 20260904132724 | 14 | 248 | 22.5 | 35.4 | 0.00 | 0.00 | 0.00 | 34 | 1012.4 |
| 20260904131233 | 14 | 259 | 27.4 | 35.4 | 0.00 | 0.00 | 0.00 | 34 | 1012.1 |
| 20260904124748 | 14 | 262 | 25.7 | 32.2 | 0.00 | 0.00 | 0.00 | 37 | 1011.8 |
| 20260904123754 | 13 | 260 | 22.5 | 33.8 | 0.00 | 0.00 | 0.00 | 38 | 1011.9 |
| 20260904122800 | 14 | 263 | 24.1 | 33.8 | 0.00 | 0.00 | 0.00 | 38 | 1011.8 |
| 20260904122306 | 14 | 259 | 20.9 | 32.2 | 0.00 | 0.00 | 0.00 | 38 | 1011.8 |
| 20260904121806 | 14 | 257 | 20.9 | 32.2 | 0.00 | 0.00 | 0.00 | 38 | 1011.8 |
| 20260904121309 | 13 | 261 | 20.9 | 32.2 | 0.00 | 0.00 | 0.00 | 39 | 1011.8 |
| 20260904115818 | 13 | 258 | 22.5 | 35.4 | 0.00 | 0.00 | 0.00 | 44 | 1011.6 |
| 20260904115321 | 13 | 262 | 24.1 | 37.0 | 0.00 | 0.00 | 0.00 | 46 | 1011.7 |
| 20260904114824 | 13 | 266 | 25.7 | 37.0 | 0.00 | 0.00 | 0.00 | 47 | 1011.6 |
| 20260904113830 | 13 | 257 | 22.5 | 37.0 | 0.00 | 0.00 | 0.00 | 49 | 1011.7 |
| 20260904113333 | 13 | 268 | 25.7 | 37.0 | 0.00 | 0.00 | 0.00 | 50 | 1011.8 |
| 20260904112836 | 13 | 262 | 22.5 | 35.4 | 0.00 | 0.00 | 0.00 | 51 | 1011.8 |
| 20260904112339 | 13 | 260 | 22.5 | 0.0 | 0.00 | 0.00 | 0.00 | 52 | 1011.8 |
| 20260904110848 | 13 | 268 | 24.1 | 33.8 | 0.00 | 0.00 | 0.00 | 53 | 1011.9 |
| 20260904105854 | 13 | 267 | 22.5 | 33.8 | 0.00 | 0.00 | 0.00 | 53 | 1011.7 |
| 20260904105357 | 13 | 268 | 22.5 | 37.0 | 0.00 | 0.00 | 0.00 | 52 | 1011.7 |
| 20260904104900 | 13 | 270 | 22.5 | 37.0 | 0.00 | 0.00 | 0.00 | 50 | 1011.8 |
| 20260904104403 | 13 | 265 | 22.5 | 37.0 | 0.00 | 0.00 | 0.00 | 51 | 1011.8 |
| 20260904103906 | 13 | 267 | 22.5 | 37.0 | 0.00 | 0.00 | 0.00 | 50 | 1011.7 |
| 20260904103409 | 13 | 267 | 22.5 | 33.8 | 0.00 | 0.00 | 0.00 | 50 | 1011.6 |
| 20260904102912 | 13 | 264 | 22.5 | 35.4 | 0.00 | 0.00 | 0.00 | 50 | 1011.6 |
| 20260904102415 | 13 | 269 | 22.5 | 35.4 | 0.00 | 0.00 | 0.00 | 50 | 1011.7 |
| 20260904101918 | 13 | 270 | 24.1 | 35.4 | 0.00 | 0.00 | 0.00 | 50 | 1011.6 |
| 20260904100924 | 14 | 269 | 20.9 | 35.4 | 0.00 | 0.00 | 0.00 | 47 | 1011.7 |
| 20260904100427 | 13 | 273 | 24.1 | 35.4 | 0.00 | 0.00 | 0.00 | 48 | 1011.5 |
| 20260904095930 | 13 | 271 | 20.9 | 37.0 | 0.00 | 0.00 | 0.00 | 48 | 1011.5 |
| 20260904095433 | 14 | 265 | 22.5 | 37.0 | 0.00 | 0.00 | 0.00 | 49 | 1011.5 |
| 20260904094936 | 14 | 269 | 25.7 | 35.4 | 0.00 | 0.00 | 0.00 | 46 | 1011.6 |
| 20260904093942 | 14 | 272 | 25.7 | 38.6 | 0.00 | 0.00 | 0.00 | 45 | 1011.5 |
| 20260904092948 | 15 | 271 | 25.7 | 38.6 | 0.00 | 0.00 | 0.00 | 44 | 1011.5 |
| 20260904092451 | 15 | 268 | 25.7 | 41.8 | 0.00 | 0.00 | 0.00 | 41 | 1011.6 |
| 20260904091954 | 15 | 265 | 25.7 | 41.8 | 0.00 | 0.00 | 0.00 | 40 | 1011.7 |
| 20260904090504 | 15 | 268 | 27.4 | 38.6 | 0.00 | 0.00 | 0.00 | 39 | 1011.8 |
| 20260904084515 | 15 | 270 | 22.5 | 35.4 | 0.00 | 0.00 | 0.00 | 37 | 1012.1 |
| 20260904084018 | 15 | 268 | 22.5 | 37.0 | 0.00 | 0.00 | 0.00 | 37 | 1012.0 |
| 20260904083024 | 15 | 271 | 25.7 | 38.6 | 0.00 | 0.00 | 0.00 | 36 | 1012.1 |
| 20260904082527 | 15 | 272 | 25.7 | 38.6 | 0.00 | 0.00 | 0.00 | 34 | 1012.0 |
| 20260904081533 | 15 | 263 | 24.1 | 35.4 | 0.00 | 0.00 | 0.00 | 31 | 1012.3 |
| 20260904081036 | 15 | 256 | 24.1 | 37.0 | 0.00 | 0.00 | 0.00 | 30 | 1012.3 |
| 20260904080042 | 15 | 259 | 24.1 | 33.8 | 0.00 | 0.00 | 0.00 | 30 | 1012.3 |
| 20260904075048 | 15 | 250 | 22.5 | 38.6 | 0.00 | 0.00 | 0.00 | 31 | 1012.4 |
| 20260904074551 | 15 | 252 | 24.1 | 38.6 | 0.00 | 0.00 | 0.00 | 31 | 1012.5 |
| 20260904074054 | 15 | 253 | 27.4 | 38.6 | 0.00 | 0.00 | 0.00 | 31 | 1012.4 |
| 20260904073557 | 15 | 255 | 25.7 | 35.4 | 0.00 | 0.00 | 0.00 | 32 | 1012.5 |
| 20260904073100 | 15 | 252 | 24.1 | 35.4 | 0.00 | 0.00 | 0.00 | 30 | 1012.6 |
| 20260904072106 | 16 | 256 | 24.1 | 37.0 | 0.00 | 0.00 | 0.00 | 25 | 1012.7 |
| 20260904071609 | 16 | 255 | 24.1 | 37.0 | 0.00 | 0.00 | 0.00 | 23 | 1012.7 |
| 20260904071112 | 16 | 252 | 27.4 | 37.0 | 0.00 | 0.00 | 0.00 | 22 | 1012.7 |
| 20260904070615 | 16 | 253 | 24.1 | 35.4 | 0.00 | 0.00 | 0.00 | 21 | 1012.7 |
| 20260904070118 | 16 | 255 | 24.1 | 33.8 | 0.00 | 0.00 | 0.00 | 20 | 1012.7 |
| 20260904065621 | 16 | 254 | 22.5 | 37.0 | 0.00 | 0.00 | 0.00 | 19 | 1012.7 |
| 20260904065124 | 16 | 253 | 25.7 | 37.0 | 0.00 | 0.00 | 0.00 | 19 | 1012.6 |
| 20260904064627 | 16 | 248 | 24.1 | 33.8 | 0.00 | 0.00 | 0.00 | 19 | 1012.6 |
| 20260904064130 | 16 | 241 | 24.1 | 33.8 | 0.00 | 0.00 | 0.00 | 19 | 1012.5 |
| 20260904063633 | 16 | 250 | 24.1 | 33.8 | 0.00 | 0.00 | 0.00 | 19 | 1012.5 |
| 20260904062639 | 16 | 252 | 22.5 | 30.6 | 0.00 | 0.00 | 0.00 | 19 | 1012.5 |
| 20260904062142 | 16 | 243 | 20.9 | 30.6 | 0.00 | 0.00 | 0.00 | 20 | 1012.5 |
| 20260904061148 | 16 | 248 | 22.5 | 32.2 | 0.00 | 0.00 | 0.00 | 20 | 1012.5 |
| 20260904060154 | 16 | 243 | 19.3 | 27.4 | 0.00 | 0.00 | 0.00 | 21 | 1012.5 |
| 20260904055200 | 16 | 247 | 19.3 | 29.0 | 0.00 | 0.00 | 0.00 | 21 | 1012.6 |
| 20260904053212 | 16 | 249 | 17.7 | 29.0 | 0.00 | 0.00 | 0.00 | 23 | 1012.7 |
| 20260904052715 | 16 | 250 | 19.3 | 29.0 | 0.00 | 0.00 | 0.00 | 23 | 1012.6 |
| 20260904052218 | 16 | 250 | 17.7 | 29.0 | 0.00 | 0.00 | 0.00 | 23 | 1012.6 |
| 20260904051721 | 17 | 251 | 19.3 | 29.0 | 0.00 | 0.00 | 0.00 | 23 | 1012.5 |
| 20260904051224 | 17 | 254 | 20.9 | 32.2 | 0.00 | 0.00 | 0.00 | 23 | 1012.6 |
| 20260904050727 | 17 | 247 | 22.5 | 33.8 | 0.00 | 0.00 | 0.00 | 23 | 1012.6 |
| 20260904050230 | 17 | 249 | 24.1 | 38.6 | 0.00 | 0.00 | 0.00 | 23 | 1012.5 |
| 20260904044739 | 17 | 259 | 25.7 | 41.8 | 0.00 | 0.00 | 0.00 | 24 | 1013.4 |
| 20260904043248 | 17 | 254 | 29.0 | 37.0 | 0.00 | 0.00 | 0.00 | 24 | 1013.4 |
| 20260904042751 | 17 | 251 | 27.4 | 37.0 | 0.00 | 0.00 | 0.00 | 24 | 1013.3 |
| 20260904041757 | 16 | 250 | 22.5 | 30.6 | 0.00 | 0.00 | 0.00 | 29 | 1013.3 |
| 20260904041300 | 16 | 253 | 19.3 | 27.4 | 0.00 | 0.00 | 0.00 | 32 | 1013.4 |
| 20260904040306 | 16 | 249 | 19.3 | 29.0 | 0.00 | 0.00 | 0.00 | 42 | 1013.4 |
| 20260904035312 | 16 | 249 | 19.3 | 27.4 | 0.00 | 0.00 | 0.00 | 47 | 1013.2 |
| 20260904034815 | 16 | 252 | 20.9 | 27.4 | 0.00 | 0.00 | 0.00 | 52 | 1013.1 |
| 20260904034318 | 15 | 248 | 19.3 | 29.0 | 0.00 | 0.00 | 0.00 | 60 | 1013.0 |
| 20260904033821 | 15 | 246 | 20.9 | 30.6 | 0.00 | 0.00 | 0.00 | 65 | 1013.1 |
| 20260904033324 | 15 | 246 | 19.3 | 30.6 | 0.00 | 0.00 | 0.00 | 69 | 1012.9 |
| 20260904032827 | 15 | 246 | 19.3 | 27.4 | 0.00 | 0.00 | 0.00 | 72 | 1013.0 |
| 20260904032330 | 15 | 247 | 17.7 | 30.6 | 0.00 | 0.00 | 0.00 | 74 | 1012.9 |
| 20260904031336 | 15 | 250 | 20.9 | 29.0 | 0.00 | 0.00 | 0.00 | 79 | 1012.6 |
| 20260904030839 | 14 | 254 | 20.9 | 27.4 | 0.00 | 0.00 | 0.00 | 80 | 1012.6 |
| 20260904025348 | 14 | 251 | 19.3 | 29.0 | 0.00 | 0.00 | 0.00 | 82 | 1012.5 |
| 20260904024851 | 14 | 252 | 19.3 | 29.0 | 0.00 | 0.00 | 0.00 | 82 | 1012.6 |
| 20260904024354 | 15 | 253 | 20.9 | 29.0 | 0.00 | 0.00 | 0.00 | 81 | 1012.5 |